Temp
-4 -4 -4 -3 -4 -4 -5 -5 -7 -6 -5 -4 -4 -5 -4 -5 -5 -5 -6 -5 -5 -6 -6 -5 -5 -6 -6 -6 -6 -6 -6 -6 -5 -5 -6 -6 -6 -6 -6 -6 -6 -6 -7 -7 -7 -7 -8 -8 -8
-5 -4 -4 -4 -4 -4 -4 -6 -6 -5 -4 -4 -4 -3 -4 -5 -5 -4 -5 -6 -6 -6 -5 -5 -5 -6 -7 -7 -6 -6 -6 -6 -6 -5 -6 -6 -6 -6 -6 -6 -6 -6 -7 -7 -7 -7 -7 -7 -8
-4 -3 -4 -4 -4 -3 -4 -6 -5 -6 -5 -4 -4 -4 -4 -5 -5 -4 -5 -5 -6 -6 -5 -5 -5 -5 -6 -6 -6 -6 -6 -6 -6 -6 -6 -6 -6 -6 -6 -6 -6 -6 -6 -7 -7 -7 -7 -7 -8
-4 -5 -4 -3 -5 -5 -5 -5 -5 -6 -5 -5 -4 -4 -3 -4 -4 -4 -5 -5 -5 -6 -6 -5 -5 -6 -5 -6 -6 -5 -5 -5 -5 -6 -6 -6 -6 -6 -6 -6 -6 -6 -7 -7 -7 -7 -7 -7 -8
-4 -5 -5 -3 -4 -4 -4 -4 -5 -5 -5 -5 -4 -5 -4 -4 -4 -4 -5 -5 -5 -5 -5 -5 -5 -5 -5 -5 -5 -5 -6 -6 -5 -6 -6 -6 -6 -6 -6 -7 -7 -7 -7 -7 -7 -7 -6 -7 -8
-3 -3 -4 -3 -4 -4 -5 -4 -4 -5 -5 -5 -5 -6 -5 -5 -5 -4 -5 -5 -5 -5 -5 -5 -6 -5 -5 -5 -6 -5 -5 -6 -5 -6 -6 -6 -5 -6 -6 -7 -7 -7 -7 -7 -7 -7 -7 -7 -8
-4 -4 -3 -4 -4 -4 -5 -5 -5 -5 -6 -5 -5 -4 -5 -4 -5 -4 -4 -6 -5 -5 -5 -5 -5 -5 -5 -5 -5 -5 -5 -6 -5 -5 -5 -6 -6 -6 -6 -6 -7 -7 -6 -6 -7 -7 -7 -7 -7
-5 -5 -5 -6 -5 -4 -4 -4 -5 -5 -5 -5 -6 -5 -6 -5 -5 -4 -4 -6 -5 -5 -6 -6 -5 -6 -5 -5 -5 -5 -5 -4 -5 -5 -5 -6 -6 -6 -6 -6 -6 -6 -6 -7 -7 -6 -7 -6 -6
-7 -6 -5 -5 -5 -4 -4 -5 -4 -4 -6 -5 -6 -5 -6 -5 -5 -5 -5 -5 -5 -6 -5 -6 -5 -6 -6 -6 -5 -5 -5 -4 -5 -5 -5 -6 -7 -7 -7 -6 -6 -7 -7 -7 -6 -6 -7 -6 -6
-7 -7 -6 -6 -5 -5 -4 -4 -5 -5 -5 -5 -5 -5 -6 -5 -5 -5 -5 -5 -5 -5 -5 -6 -6 -6 -6 -5 -5 -5 -5 -5 -5 -5 -6 -6 -6 -6 -6 -6 -6 -6 -7 -7 -7 -7 -7 -7 -6
-6 -6 -6 -6 -6 -5 -5 -4 -4 -5 -5 -5 -5 -5 -5 -5 -5 -5 -5 -5 -5 -5 -5 -6 -6 -6 -6 -6 -5 -5 -5 -6 -5 -5 -6 -6 -6 -6 -6 -6 -6 -6 -7 -7 -6 -7 -7 -7 -8
-6 -6 -5 -5 -5 -5 -5 -5 -5 -5 -5 -5 -5 -6 -5 -5 -5 -4 -5 -5 -5 -5 -6 -5 -6 -6 -6 -6 -5 -5 -6 -6 -6 -6 -6 -6 -6 -6 -7 -6 -7 -7 -6 -6 -7 -7 -7 -8 -8
-5 -6 -5 -5 -5 -6 -5 -5 -5 -5 -4 -4 -4 -4 -4 -5 -6 -5 -5 -5 -5 -5 -6 -5 -6 -6 -6 -6 -6 -5 -6 -6 -6 -5 -6 -6 -6 -6 -7 -6 -7 -7 -7 -6 -6 -7 -7 -8 -8
-5 -6 -6 -6 -7 -6 -5 -5 -5 -5 -4 -5 -5 -5 -5 -5 -5 -5 -5 -5 -5 -5 -6 -6 -6 -6 -6 -6 -6 -6 -6 -6 -6 -6 -6 -6 -6 -6 -6 -7 -6 -7 -7 -7 -7 -6 -7 -7 -8
-6 -5 -6 -6 -7 -6 -6 -5 -5 -5 -5 -6 -5 -5 -5 -5 -5 -5 -5 -5 -5 -5 -5 -5 -6 -6 -6 -6 -6 -6 -6 -6 -6 -6 -6 -6 -6 -6 -6 -5 -7 -8 -7 -6 -7 -7 -7 -6 -7
-7 -7 -7 -6 -6 -6 -6 -5 -6 -6 -6 -7 -5 -5 -6 -5 -6 -5 -5 -5 -5 -5 -5 -6 -5 -6 -6 -6 -6 -6 -6 -6 -6 -6 -6 -6 -6 -6 -6 -6 -7 -7 -7 -6 -6 -7 -7 -7 -7
-8 -7 -7 -7 -5 -6 -6 -5 -5 -6 -7 -6 -7 -7 -7 -6 -6 -6 -5 -6 -5 -5 -6 -5 -5 -5 -6 -6 -6 -6 -6 -6 -6 -6 -6 -6 -6 -6 -6 -7 -7 -7 -7 -7 -6 -6 -8 -8 -8
-8 -7 -8 -9 -6 -6 -6 -6 -6 -6 -6 -6 -6 -6 -7 -7 -7 -7 -6 -5 -5 -5 -5 -5 -5 -5 -6 -6 -6 -6 -6 -6 -7 -7 -6 -6 -6 -6 -6 -6 -7 -7 -7 -7 -6 -6 -7 -7 -7
-8 -8 -7 -7 -6 -6 -6 -6 -7 -6 -6 -7 -5 -6 -6 -6 -7 -7 -6 -6 -5 -6 -5 -6 -6 -5 -6 -6 -6 -6 -6 -6 -6 -7 -7 -7 -6 -6 -7 -7 -7 -7 -7 -7 -6 -7 -7 -7 -7
-6 -6 -6 -7 -7 -6 -6 -6 -6 -7 -7 -7 -7 -6 -6 -6 -6 -6 -6 -6 -6 -6 -6 -6 -6 -6 -6 -6 -6 -6 -6 -6 -6 -6 -6 -6 -6 -6 -7 -8 -7 -7 -7 -7 -7 -7 -7 -7 -8
-6 -7 -6 -6 -6 -6 -6 -6 -7 -6 -7 -7 -7 -6 -6 -6 -6 -6 -6 -6 -7 -6 -6 -6 -6 -6 -6 -6 -5 -6 -6 -6 -6 -7 -6 -6 -6 -7 -7 -8 -8 -7 -7 -8 -7 -7 -8 -7 -7
-6 -7 -7 -6 -6 -6 -7 -7 -7 -7 -7 -6 -6 -6 -6 -6 -6 -6 -6 -6 -6 -6 -6 -6 -5 -5 -6 -6 -6 -6 -6 -6 -6 -6 -7 -7 -7 -7 -7 -7 -7 -7 -7 -7 -8 -7 -7 -7 -7
-6 -6 -6 -7 -7 -6 -7 -7 -7 -7 -6 -6 -7 -7 -7 -6 -7 -7 -6 -6 -6 -6 -6 -5 -5 -5 -6 -6 -5 -6 -6 -6 -6 -6 -6 -7 -7 -7 -7 -7 -7 -8 -8 -8 -8 -8 -7 -7 -7
-6 -6 -7 -7 -6 -6 -7 -7 -6 -7 -6 -7 -6 -7 -7 -6 -7 -7 -7 -6 -6 -5 -6 -5 -5 -4 -5 -6 -6 -6 -6 -6 -6 -7 -6 -6 -7 -7 -7 -7 -7 -7 -7 -7 -8 -8 -8 -8 -7
-6 -6 -7 -8 -7 -7 -6 -7 -7 -7 -7 -7 -7 -7 -7 -7 -7 -7 -7 -7 -7 -6 -5 -5 -5 -5 -5 -5 -5 -6 -6 -6 -6 -7 -7 -7 -7 -7 -6 -6 -6 -6 -7 -7 -8 -8 -8 -8 -8
-6 -7 -7 -8 -8 -6 -8 -8 -8 -8 -8 -8 -7 -8 -7 -8 -8 -6 -5 -8 -8 -8 -7 -6 -6 -6 -5 -5 -5 -6 -6 -6 -6 -6 -7 -7 -7 -7 -7 -7 -7 -7 -7 -7 -7 -8 -8 -8 -8
-6 -7 -8 -8 -7 -7 -7 -8 -7 -8 -8 -7 -6 -7 -8 -8 -8 -7 -6 -7 -7 -8 -8 -8 -7 -7 -7 -6 -6 -6 -6 -6 -6 -6 -7 -7 -7 -7 -7 -7 -7 -6 -6 -6 -7 -7 -8 -8 -8
-7 -7 -7 -7 -7 -7 -8 -8 -8 -8 -8 -8 -6 -7 -6 -8 -8 -8 -7 -6 -7 -8 -8 -9 -9 -8 -8 -7 -7 -6 -6 -6 -6 -7 -7 -7 -7 -7 -7 -7 -7 -7 -6 -6 -6 -6 -7 -7 -8
-8 -7 -7 -7 -7 -8 -8 -8 -8 -7 -8 -8 -7 -7 -7 -9 -9 -9 -9 -8 -7 -7 -6 -7 -8 -9 -9 -8 -8 -7 -6 -7 -7 -7 -7 -7 -7 -7 -7 -7 -6 -7 -6 -7 -6 -6 -6 -7 -7
-8 -9 -9 -8 -7 -8 -8 -7 -7 -8 -9 -8 -8 -7 -7 -8 -9 -9 -9 -9 -9 -8 -7 -6 -7 -7 -10 -9 -8 -8 -7 -7 -7 -7 -7 -7 -7 -7 -7 -7 -7 -7 -7 -7 -7 -6 -6 -6 -6
Height
5912 5910 5915 5918 5920 5911 5912 5915 5913 5912 5908 5908 5908 5907 5907 5908 5908 5910 5908 5907 5909 5908 5908 5909 5910 5910 5911 5912 5912 5913 5915 5916 5915 5915 5914 5915 5914 5912 5911 5910 5909 5909 5908 5908 5907 5906 5905 5905 5906
5911 5912 5915 5914 5911 5911 5912 5915 5913 5911 5909 5908 5907 5907 5910 5908 5909 5909 5909 5908 5908 5907 5907 5907 5909 5909 5910 5911 5912 5914 5915 5916 5917 5916 5915 5915 5914 5913 5911 5910 5911 5910 5909 5908 5908 5907 5907 5906 5907
5914 5915 5916 5913 5908 5908 5910 5915 5915 5912 5912 5906 5910 5910 5909 5909 5907 5910 5909 5907 5907 5907 5907 5908 5908 5909 5908 5910 5912 5914 5915 5916 5917 5916 5915 5915 5913 5913 5912 5912 5912 5911 5911 5911 5910 5909 5908 5907 5906
5916 5914 5914 5914 5913 5915 5914 5912 5916 5913 5911 5907 5910 5908 5911 5911 5910 5911 5910 5908 5907 5908 5907 5908 5907 5909 5909 5909 5912 5913 5914 5916 5916 5916 5916 5915 5915 5914 5914 5913 5912 5912 5912 5910 5911 5910 5909 5908 5906
5916 5913 5911 5916 5914 5915 5917 5916 5914 5913 5911 5910 5909 5908 5907 5906 5906 5910 5911 5908 5908 5907 5907 5909 5909 5910 5911 5912 5913 5913 5915 5915 5915 5915 5916 5915 5916 5916 5915 5913 5911 5912 5911 5911 5911 5911 5911 5910 5908
5915 5918 5916 5916 5915 5915 5915 5914 5915 5913 5911 5910 5911 5906 5908 5909 5906 5909 5913 5908 5909 5908 5908 5910 5911 5912 5912 5914 5913 5914 5914 5914 5914 5915 5917 5917 5917 5916 5914 5913 5913 5913 5912 5910 5910 5912 5912 5909 5908
5917 5915 5916 5916 5916 5916 5916 5914 5914 5913 5910 5910 5912 5909 5908 5910 5905 5908 5911 5909 5909 5909 5909 5911 5911 5913 5913 5914 5914 5913 5912 5911 5914 5916 5917 5916 5917 5917 5916 5916 5916 5915 5913 5911 5912 5911 5912 5913 5911
5918 5915 5917 5917 5917 5917 5916 5914 5913 5911 5915 5912 5910 5908 5908 5909 5908 5906 5910 5910 5909 5910 5909 5910 5911 5912 5912 5914 5914 5914 5913 5912 5914 5916 5916 5916 5918 5918 5917 5919 5919 5914 5913 5914 5913 5914 5912 5915 5916
5917 5917 5916 5916 5918 5918 5917 5915 5910 5913 5912 5910 5909 5902 5907 5911 5910 5907 5908 5911 5910 5910 5909 5910 5910 5912 5913 5915 5915 5915 5916 5914 5915 5915 5916 5918 5918 5917 5916 5917 5916 5915 5915 5915 5916 5915 5916 5920 5920
5918 5917 5917 5916 5918 5918 5916 5914 5913 5910 5912 5908 5906 5906 5908 5913 5909 5909 5907 5910 5910 5910 5910 5910 5912 5912 5913 5912 5914 5914 5915 5916 5915 5914 5916 5916 5917 5917 5916 5918 5919 5917 5916 5917 5916 5918 5921 5922 5922
5915 5916 5915 5918 5918 5917 5916 5914 5914 5912 5912 5910 5910 5907 5911 5907 5907 5909 5907 5910 5912 5911 5911 5910 5911 5911 5912 5912 5913 5912 5915 5916 5915 5916 5915 5915 5920 5922 5920 5920 5921 5921 5918 5917 5918 5920 5923 5923 5923
5916 5917 5917 5917 5917 5916 5914 5913 5913 5912 5914 5913 5911 5909 5908 5909 5908 5908 5908 5911 5912 5913 5911 5911 5911 5911 5913 5914 5915 5915 5916 5918 5917 5917 5917 5918 5919 5916 5920 5918 5920 5920 5920 5919 5922 5920 5924 5922 5925
5915 5917 5917 5918 5916 5916 5915 5914 5913 5910 5912 5911 5911 5910 5908 5908 5907 5908 5907 5909 5911 5912 5911 5911 5911 5913 5913 5915 5916 5917 5919 5918 5916 5916 5918 5918 5916 5900 5917 5918 5921 5920 5919 5921 5922 5921 5923 5924 5926
5916 5916 5916 5917 5918 5917 5915 5915 5914 5913 5913 5910 5909 5908 5908 5909 5909 5909 5911 5910 5909 5909 5910 5911 5911 5912 5913 5914 5915 5916 5918 5918 5917 5916 5918 5918 5918 5917 5921 5913 5915 5919 5919 5921 5920 5921 5921 5923 5924
5916 5916 5916 5918 5919 5918 5918 5917 5914 5912 5911 5908 5907 5907 5908 5909 5909 5908 5907 5907 5908 5908 5908 5911 5912 5911 5912 5913 5914 5915 5916 5917 5917 5918 5916 5917 5917 5917 5919 5907 5916 5918 5922 5923 5923 5919 5919 5923 5924
5916 5917 5918 5919 5920 5920 5920 5918 5917 5915 5913 5914 5910 5907 5907 5908 5908 5908 5908 5907 5908 5908 5908 5908 5909 5910 5912 5912 5913 5916 5916 5917 5916 5916 5914 5916 5917 5918 5916 5917 5922 5918 5924 5927 5924 5919 5920 5924 5924
5916 5916 5920 5919 5920 5921 5920 5919 5917 5916 5915 5915 5914 5912 5909 5907 5909 5908 5909 5908 5908 5907 5907 5909 5907 5909 5910 5911 5913 5916 5917 5917 5913 5913 5912 5915 5917 5918 5917 5916 5917 5919 5922 5925 5925 5924 5923 5922 5920
5918 5919 5920 5921 5920 5921 5920 5919 5916 5917 5917 5917 5916 5915 5913 5911 5909 5907 5908 5910 5908 5909 5909 5907 5906 5906 5908 5911 5913 5914 5916 5916 5914 5913 5911 5912 5916 5918 5919 5919 5920 5920 5921 5923 5927 5927 5925 5925 5925
5916 5919 5919 5920 5921 5921 5921 5919 5918 5919 5919 5918 5916 5917 5918 5915 5914 5911 5909 5905 5906 5908 5907 5904 5903 5904 5907 5910 5911 5912 5910 5913 5912 5913 5910 5912 5914 5919 5918 5921 5919 5920 5921 5925 5927 5927 5930 5932 5932
5915 5917 5919 5922 5920 5921 5921 5920 5920 5918 5918 5918 5917 5918 5918 5918 5916 5913 5910 5909 5904 5903 5904 5905 5906 5906 5907 5908 5909 5910 5910 5912 5911 5913 5912 5912 5914 5917 5919 5920 5919 5919 5921 5925 5929 5929 5931 5933 5930
5916 5917 5919 5921 5920 5920 5921 5920 5919 5920 5919 5918 5918 5916 5917 5916 5916 5914 5912 5909 5907 5904 5905 5906 5906 5906 5906 5907 5907 5909 5909 5910 5910 5911 5911 5912 5913 5916 5919 5920 5917 5920 5918 5921 5925 5927 5928 5932 5931
5915 5915 5917 5918 5919 5921 5920 5918 5917 5919 5919 5920 5916 5915 5912 5914 5914 5914 5913 5911 5909 5907 5905 5905 5904 5905 5904 5905 5906 5907 5908 5909 5909 5909 5911 5911 5913 5915 5916 5918 5918 5918 5917 5915 5923 5926 5922 5929 5933
5915 5915 5916 5919 5920 5920 5918 5917 5918 5919 5916 5916 5916 5915 5911 5910 5912 5913 5912 5910 5909 5908 5906 5904 5903 5902 5902 5903 5904 5905 5906 5907 5908 5907 5907 5909 5910 5913 5915 5914 5916 5916 5915 5919 5921 5920 5921 5923 5929
5914 5916 5918 5918 5915 5916 5915 5917 5918 5918 5918 5917 5916 5912 5910 5908 5911 5912 5912 5910 5908 5907 5905 5903 5901 5900 5901 5901 5902 5903 5904 5905 5906 5906 5906 5907 5908 5910 5913 5915 5914 5916 5917 5917 5919 5918 5916 5919 5923
5912 5915 5915 5917 5918 5915 5918 5917 5917 5916 5917 5915 5912 5910 5910 5908 5909 5909 5909 5910 5907 5905 5903 5902 5900 5899 5899 5899 5899 5901 5902 5903 5904 5904 5904 5904 5906 5907 5910 5913 5914 5915 5916 5917 5917 5916 5915 5917 5921
5911 5914 5915 5916 5916 5917 5915 5912 5916 5914 5914 5912 5909 5909 5910 5909 5903 5906 5906 5901 5907 5907 5905 5902 5900 5899 5898 5898 5898 5899 5899 5900 5900 5902 5903 5903 5903 5904 5906 5909 5911 5911 5912 5913 5916 5916 5917 5916 5919
5909 5911 5913 5912 5916 5916 5914 5913 5913 5909 5909 5904 5903 5896 5901 5904 5904 5900 5904 5900 5904 5903 5905 5903 5901 5898 5897 5898 5897 5896 5896 5897 5897 5898 5900 5901 5902 5901 5902 5903 5906 5907 5908 5910 5911 5913 5913 5917 5918
5910 5911 5911 5911 5912 5913 5910 5908 5910 5907 5907 5903 5904 5900 5877 5901 5898 5896 5893 5897 5901 5901 5901 5899 5903 5902 5897 5895 5897 5896 5894 5894 5895 5895 5896 5898 5899 5901 5901 5900 5901 5903 5904 5905 5907 5908 5911 5913 5914
5907 5906 5908 5907 5908 5908 5908 5903 5903 5904 5898 5896 5895 5890 5890 5889 5898 5902 5899 5894 5890 5895 5892 5898 5894 5897 5899 5896 5892 5894 5893 5891 5892 5892 5892 5892 5893 5895 5897 5898 5898 5900 5902 5903 5904 5905 5908 5911 5912
5901 5904 5903 5902 5904 5904 5904 5898 5899 5897 5892 5890 5886 5883 5887 5891 5893 5897 5898 5894 5887 5885 5889 5894 5891 5870 5890 5892 5892 5890 5890 5889 5888 5888 5888 5888 5888 5890 5892 5893 5895 5896 5897 5898 5900 5901 5903 5905 5906
Wind_Speed
8 5 5 4 4 6 14 11 13 3 15 12 9 8 12 12 8 7 9 8 5 4 2 2 2 5 4 3 7 6 2 1 2 3 3 2 4 5 5 6 6 4 5 6 7 8 10 9 7
7 5 8 1 6 4 11 7 5 12 13 9 11 11 8 8 8 8 7 7 8 8 4 3 2 2 3 3 8 6 4 3 2 3 2 1 5 4 5 5 5 4 4 5 7 8 11 10 8
3 4 5 5 6 25 12 8 10 12 10 16 13 10 10 9 8 9 9 8 9 7 5 5 2 1 3 12 8 5 6 5 2 3 2 2 4 4 4 5 5 4 6 6 6 9 10 9 8
4 5 6 4 6 10 4 5 8 7 9 14 13 9 13 8 7 10 9 8 9 8 1 4 1 10 10 10 8 6 6 7 6 5 2 4 4 3 4 4 5 6 7 7 7 8 8 9 7
8 3 2 3 6 7 2 7 9 8 14 7 14 15 15 13 10 9 9 10 10 10 2 5 8 10 6 6 5 5 5 7 8 7 5 5 4 1 3 3 5 5 6 8 9 8 9 9 8
7 3 2 3 4 4 4 8 5 7 12 15 7 12 9 10 8 9 7 8 9 9 4 3 4 5 2 1 3 5 5 9 11 9 4 3 4 3 4 3 4 6 8 10 10 9 10 11 10
5 9 7 6 7 3 6 8 9 6 7 15 8 5 7 9 8 8 8 8 7 7 3 5 4 3 4 4 6 4 4 9 15 11 4 4 5 4 3 2 5 7 7 9 11 11 10 11 10
2 1 3 4 3 4 5 7 8 7 14 12 11 7 9 9 7 9 11 7 7 5 4 4 4 3 3 4 3 2 5 8 13 10 6 7 5 2 3 3 5 8 8 10 12 9 12 11 9
4 12 8 4 6 5 5 7 9 9 8 11 13 9 12 7 10 10 10 7 5 4 4 3 7 3 5 1 4 1 3 9 9 7 7 6 7 5 4 5 8 9 8 11 13 8 11 13 11
4 6 6 6 4 6 8 8 9 10 13 16 25 21 13 5 8 11 9 9 6 5 4 3 2 5 6 6 1 5 7 5 8 9 8 9 6 5 7 7 7 9 9 10 13 8 15 15 10
8 7 8 6 5 5 5 7 9 10 11 14 15 16 11 13 10 10 7 7 6 6 3 3 3 5 10 12 9 6 11 4 5 8 10 9 6 6 8 10 8 8 9 9 13 12 15 17 11
3 2 3 4 6 8 11 12 9 9 10 9 8 9 10 12 10 9 7 6 6 3 4 2 4 4 5 7 9 10 7 5 3 7 7 4 6 9 4 14 6 11 9 8 7 11 14 18 15
4 5 5 7 9 11 10 9 10 13 14 15 11 7 8 13 12 9 10 10 6 6 3 4 2 2 2 2 5 5 7 5 2 6 8 6 6 7 4 7 13 12 14 8 8 9 11 12 11
5 5 11 14 15 14 14 14 10 9 12 14 12 11 9 9 10 7 6 5 7 6 4 3 2 4 4 5 5 3 4 6 6 4 7 9 6 5 2 6 15 9 13 8 5 7 10 8 9
5 3 9 11 14 11 11 11 13 14 18 17 13 10 8 9 8 9 8 6 5 5 4 2 1 2 3 4 4 1 3 4 1 2 6 10 6 3 8 3 2 12 9 7 7 8 9 5 10
16 16 13 13 10 11 11 11 7 12 17 16 15 14 13 9 11 8 9 8 3 3 1 2 1 2 1 5 5 3 1 0 3 3 9 12 10 6 6 7 8 10 12 10 7 9 9 4 7
10 4 6 16 10 6 12 11 12 13 14 14 15 16 16 15 11 10 7 8 5 3 3 0 2 1 1 4 5 4 3 0 4 5 5 10 12 9 5 3 7 11 11 10 7 7 11 7 6
4 7 7 11 13 10 10 11 15 15 10 10 14 16 16 17 14 13 10 7 6 4 2 1 1 2 1 2 3 3 5 4 2 2 7 11 10 7 7 5 10 14 11 6 5 5 7 6 2
20 13 11 9 15 10 7 11 18 15 15 16 14 14 11 14 15 12 10 13 7 5 4 3 4 3 2 3 2 6 9 6 3 2 6 11 11 9 11 10 11 14 14 11 7 9 11 7 4
9 8 13 8 7 4 6 9 15 16 21 26 14 12 8 14 13 12 13 12 10 8 8 4 3 4 5 5 4 1 6 5 3 3 4 6 10 9 12 10 9 11 11 8 6 6 9 9 6
3 4 3 5 4 4 6 5 10 15 19 28 10 12 8 10 13 14 12 10 12 10 6 5 3 5 7 5 4 4 3 3 6 5 4 4 5 8 9 8 10 11 14 15 10 11 12 8 8
7 2 2 3 3 8 13 6 15 14 19 23 15 23 23 10 12 15 14 12 11 9 10 6 5 5 3 7 5 6 5 4 4 6 6 6 4 6 8 6 4 5 6 4 3 7 10 12 9
6 4 4 6 6 9 10 11 15 16 23 26 13 30 27 25 17 14 13 12 11 10 9 9 7 5 3 4 6 5 7 5 6 7 7 9 8 7 8 7 7 7 10 8 7 9 8 9 8
5 8 6 11 6 2 11 6 12 16 20 20 27 27 26 25 20 17 14 12 11 10 9 8 9 6 5 4 4 9 5 7 8 9 6 7 8 9 9 10 12 9 11 10 10 11 7 6 7
9 12 6 10 12 11 9 3 12 16 15 23 26 24 21 21 17 15 13 14 13 16 14 11 8 7 6 6 8 6 9 8 10 11 10 8 9 8 8 10 13 12 12 9 10 12 6 7 6
11 14 5 12 13 11 3 7 6 14 17 18 23 16 10 11 14 12 13 5 11 14 16 15 12 9 7 7 8 8 8 11 11 13 13 12 12 11 7 7 11 11 13 13 8 9 11 11 10
10 10 7 12 5 8 3 14 14 22 10 18 15 19 18 7 7 19 18 15 20 6 16 17 14 10 9 7 7 8 8 10 11 12 15 16 14 13 12 12 11 12 13 16 14 10 13 15 15
3 7 9 9 6 5 14 5 12 16 17 25 19 24 21 6 12 26 26 19 23 20 15 11 18 14 8 7 8 10 10 9 12 12 14 15 15 14 14 15 13 14 15 17 15 12 14 17 19
6 11 10 11 12 12 13 23 18 25 25 26 29 41 25 6 15 20 29 30 35 25 28 25 16 10 11 9 7 9 12 12 12 13 13 15 15 14 14 16 15 14 15 17 16 15 13 15 19
16 10 13 19 15 17 17 26 22 24 25 34 34 23 16 19 21 25 28 32 35 36 30 29 30 2 12 10 12 11 11 15 16 14 15 14 14 13 13 13 13 14 17 17 17 17 15 16 19
Wind_Direction
141 157 105 82 13 146 111 16 40 347 15 23 12 10 21 37 21 16 25 39 22 358 282 253 232 175 160 125 127 176 208 261 317 294 333 41 116 101 92 66 66 71 87 90 93 86 84 100 113
128 127 78 57 38 273 40 28 5 359 358 2 358 24 35 20 17 18 26 20 15 6 318 243 271 239 239 227 161 170 192 202 260 296 326 150 116 126 105 81 58 61 72 79 86 86 92 101 109
117 73 38 347 33 93 91 40 11 340 357 342 6 22 21 41 2 19 25 349 3 15 40 88 168 247 161 135 144 154 186 190 214 267 263 152 150 126 75 58 58 54 61 60 81 89 100 100 105
112 235 201 305 21 49 277 31 353 302 328 318 4 23 359 45 6 10 24 348 2 9 347 30 57 159 160 146 162 183 185 189 200 232 210 170 163 139 80 63 71 65 50 81 84 88 108 115 116
180 311 220 339 44 40 71 321 330 319 315 327 0 0 2 9 353 9 15 345 7 4 129 77 83 153 147 148 172 200 209 201 209 221 213 179 153 97 94 96 87 73 74 90 99 91 100 122 120
230 237 158 277 13 36 1 336 14 302 293 311 15 339 354 8 354 352 31 359 7 11 72 79 110 140 124 194 299 242 228 226 213 224 201 183 159 161 163 108 93 96 87 103 112 98 112 128 131
351 323 346 20 349 45 1 339 359 336 307 317 293 349 36 19 5 3 34 27 7 2 32 61 53 146 353 159 92 102 279 215 196 196 223 193 179 190 159 99 85 107 96 103 106 116 122 123 129
67 259 316 6 21 7 6 0 354 324 348 325 310 225 50 32 13 359 41 37 10 5 18 27 52 16 53 116 86 36 6 155 179 184 187 186 169 201 125 81 92 118 112 101 107 123 132 122 115
200 289 308 279 40 5 9 349 333 0 16 323 281 3 91 25 33 357 33 46 18 3 329 8 21 90 31 150 276 326 83 123 150 168 176 174 167 184 145 92 134 126 123 107 100 125 113 94 101
316 346 57 348 1 15 357 5 11 10 353 336 1 10 49 24 22 5 16 35 20 13 340 344 30 25 356 332 150 174 152 108 152 168 178 189 192 153 126 83 129 125 123 113 108 111 95 95 98
284 317 316 31 358 1 352 339 11 15 12 10 22 17 12 44 12 2 21 36 35 359 23 18 29 27 27 82 74 142 166 176 169 184 197 189 143 133 116 106 123 114 115 123 117 102 106 113 128
310 307 354 13 355 357 0 354 350 347 10 14 35 24 28 39 15 28 27 40 40 23 1 1 63 59 63 87 99 110 116 124 134 199 209 221 185 152 132 126 133 124 125 118 115 102 92 151 109
61 33 61 63 49 24 17 353 20 352 2 356 354 357 6 33 30 55 34 21 7 56 353 352 18 46 118 137 111 111 105 104 120 206 193 210 249 217 347 97 131 133 141 147 129 120 101 104 108
65 52 59 43 21 15 9 10 16 8 24 2 1 0 7 23 33 24 98 55 13 17 39 344 357 34 160 167 130 131 90 77 111 230 210 185 207 147 13 221 148 147 155 159 133 101 96 91 102
44 86 71 41 13 358 3 12 16 23 35 21 4 10 26 39 42 29 44 58 20 358 332 33 124 61 71 176 155 162 77 93 271 217 220 201 196 172 120 260 192 155 167 170 139 99 84 98 118
71 44 3 347 17 353 353 4 40 43 44 52 18 21 10 17 40 32 31 31 55 98 46 337 243 100 239 167 193 187 306 172 271 281 230 208 197 183 196 202 174 166 175 196 156 117 116 114 90
34 71 322 332 342 2 4 354 49 48 48 55 57 39 24 15 24 27 31 43 34 35 86 243 83 235 29 105 187 216 233 341 329 283 231 203 207 180 226 299 267 227 196 197 149 136 133 130 159
345 273 72 289 324 22 8 2 21 39 48 41 65 62 47 42 20 14 1 28 32 21 38 71 3 32 272 210 209 227 241 192 239 16 218 204 210 205 223 226 182 212 193 194 193 193 173 191 190
275 263 257 266 302 26 342 8 41 29 34 14 21 45 54 43 40 32 20 358 11 11 349 9 6 334 280 239 208 298 203 203 247 322 229 212 217 207 230 239 223 200 186 187 181 200 214 192 176
255 237 247 252 320 33 5 6 34 15 357 358 357 4 34 48 32 27 31 42 359 17 350 341 258 264 265 247 264 140 183 220 249 275 250 207 220 219 230 256 241 207 194 180 194 215 229 206 198
189 207 279 312 10 355 342 5 21 7 341 339 309 323 357 22 24 20 15 28 20 5 342 312 305 258 265 258 251 214 201 247 259 241 270 228 195 220 240 251 284 193 204 197 202 233 243 212 192
214 205 349 33 81 115 61 8 336 333 315 334 358 356 336 353 7 2 1 5 12 354 359 340 279 265 306 260 257 242 223 210 195 228 238 258 215 201 238 241 255 210 244 237 229 238 248 224 197
223 98 134 56 108 158 83 343 285 296 305 336 336 331 325 325 340 340 344 348 2 359 345 345 341 254 275 303 257 244 232 208 213 225 222 229 230 213 221 248 248 246 269 280 270 258 257 250 210
159 125 121 20 254 190 115 21 300 283 307 315 318 322 323 312 318 321 329 336 339 340 346 334 335 345 265 279 278 269 260 230 219 231 247 237 230 236 226 216 240 237 248 259 264 270 230 262 237
151 167 99 4 340 54 62 1 299 298 301 305 312 309 313 307 304 307 320 331 339 338 336 334 335 330 318 284 276 263 254 249 234 226 238 239 239 241 231 227 230 228 237 247 261 278 258 236 240
176 193 63 324 323 12 298 278 230 261 276 291 293 298 325 312 304 327 303 1 344 333 326 327 335 344 336 318 293 282 256 247 241 240 239 242 247 250 253 227 235 245 237 236 232 250 253 225 234
200 157 236 277 167 340 275 254 279 310 257 262 298 213 220 279 270 278 317 340 325 332 325 320 319 335 346 330 295 280 280 260 246 240 241 245 243 248 261 262 253 255 243 230 235 235 235 228 235
242 227 256 233 202 203 312 313 271 304 277 251 278 274 174 195 313 325 337 276 321 309 282 307 313 312 333 325 305 286 271 269 260 251 245 248 249 247 246 257 254 253 243 234 232 237 235 232 237
329 278 279 214 210 258 256 291 290 278 268 261 271 277 268 323 299 311 313 310 310 307 291 302 259 298 312 316 308 289 277 270 257 255 254 251 251 245 241 242 250 241 235 230 232 240 233 234 237
234 231 279 279 224 232 254 261 267 273 274 258 286 273 272 270 272 286 289 293 294 296 286 292 262 246 271 296 297 297 284 266 259 255 253 247 246 243 238 238 236 238 239 242 237 236 235 235 240